Weather History for Sidney, NE

Change the Weather History Date:

Saturday, June 16, 2012

  Actual Average Record
Temperature  
Mean Temperature 71 °F 68 °F  
Max Temperature 84 °F 82 °F 95 °F (2013)
Min Temperature 58 °F 53 °F 35 °F (1981)
Degree Days  
Heating Degree Days 0 2  
Month to date heating degree days 5 47  
Since 1 June heating degree days 5 47  
Since 1 July heating degree days 5597 6209  
Cooling Degree Days 6 4  
Month to date cooling degree days 113 47  
Year to date cooling degree days 167 69  
Since 1 June cooling degree days 113 47  
Growing Degree Days 22 (Base 50)    
Moisture  
Dew Point 49 °F    
Average Humidity 52    
Maximum Humidity 78    
Minimum Humidity 26    
Precipitation  
Precipitation 0.00 in 0.11 in 1.19 in (2011)
Month to date precipitation 1.36 1.80  
Year to date precipitation 4.03 8.56  
Sea Level Pressure  
Sea Level Pressure 30.00 in    
Wind  
Wind Speed 9 mph (ENE)    
Max Wind Speed 17 mph    
Max Gust Speed 30 mph    
Visibility 10 miles    
Events      
T = Trace of Precipitation, MM = Missing Value Source: NWS Daily Summary

Daily Weather History Graph

Daily Weather History Graph

Search for Another Location

Airport:

Trip Planner

Search our weather history database for the weather conditions in past years. The results will help you decide how hot, cold, wet, or windy it might be!

Date:

Astronomy

Jun. 16, 2012 Rise Set
Actual Time 5:18 AM MDT 8:26 PM MDT
Civil Twilight 4:45 AM MDT 9:00 PM MDT
Nautical Twilight 4:02 AM MDT 9:43 PM MDT
Astronomical Twilight 3:10 AM MDT 10:34 PM MDT
Moon 3:10 AM MDT (6/16) 6:03 PM MDT (6/16)
Length of Visible Light 16h 15m
Length of Day
15h 07m
Waning Crescent, 7% of the Moon is Illuminated
Jun 16
Waning Crescent
Jun 19
New
Jun 26
First Quarter
Jul 3
Full
Jul 10
Last Quarter

Hourly Weather History & Observations

Time (MDT) Temp. Dew Point Humidity Pressure Visibility Wind Dir Wind Speed Gust Speed Precip Events Conditions
12:53 AM 64.9 °F 53.1 °F 65% 29.92 in 10.0 mi ESE 5.8 mph - 0.00 in   Overcast
1:53 AM 62.1 °F 54.0 °F 75% 29.90 in 10.0 mi NW 3.5 mph - N/A   Mostly Cloudy
2:53 AM 62.1 °F 54.0 °F 75% 29.94 in 10.0 mi WNW 3.5 mph - N/A   Scattered Clouds
3:53 AM 60.1 °F 53.1 °F 78% 29.96 in 10.0 mi WNW 8.1 mph - N/A   Mostly Cloudy
4:53 AM 60.1 °F 54.0 °F 80% 30.00 in 10.0 mi NW 9.2 mph - N/A   Clear
5:53 AM 60.1 °F 54.0 °F 80% 30.02 in 10.0 mi North 11.5 mph - N/A   Partly Cloudy
6:53 AM 61.0 °F 52.0 °F 72% 30.04 in 10.0 mi North 11.5 mph - N/A   Clear
7:53 AM 63.0 °F 52.0 °F 67% 30.09 in 10.0 mi NNE 12.7 mph - N/A   Clear
8:53 AM 66.0 °F 50.0 °F 56% 30.11 in 10.0 mi NNE 15.0 mph - N/A   Clear
9:53 AM 71.1 °F 46.9 °F 42% 30.11 in 10.0 mi NE 12.7 mph 19.6 mph N/A   Clear
10:53 AM 73.0 °F 46.9 °F 39% 30.09 in 10.0 mi NNE 11.5 mph - N/A   Clear
11:53 AM 75.0 °F 44.1 °F 33% 30.09 in 10.0 mi NE 8.1 mph 16.1 mph N/A   Clear
12:53 PM 77.0 °F 45.0 °F 32% 30.06 in 10.0 mi East 8.1 mph - N/A   Clear
1:53 PM 78.1 °F 44.1 °F 30% 30.04 in 10.0 mi Variable 3.5 mph - N/A   Clear
2:53 PM 82.0 °F 45.0 °F 27% 30.00 in 10.0 mi South 5.8 mph 16.1 mph N/A   Clear
3:53 PM 82.0 °F 44.1 °F 26% 29.99 in 10.0 mi Calm Calm - N/A   Clear
4:53 PM 84.0 °F 46.9 °F 27% 29.97 in 10.0 mi SW 11.5 mph 16.1 mph N/A   Clear
5:53 PM 82.9 °F 46.9 °F 28% 29.96 in 10.0 mi South 11.5 mph - N/A   Partly Cloudy
6:53 PM 82.0 °F 46.9 °F 29% 29.93 in 10.0 mi SSE 8.1 mph - N/A   Clear
7:53 PM 78.1 °F 46.9 °F 33% 29.93 in 10.0 mi SE 10.4 mph - N/A   Partly Cloudy
8:53 PM 71.1 °F 50.0 °F 47% 29.94 in 10.0 mi SE 6.9 mph - N/A   Clear
9:53 PM 66.9 °F 51.1 °F 57% 29.94 in 10.0 mi SSE 9.2 mph - N/A   Clear
11:53 PM 64.9 °F 51.1 °F 61% 29.93 in 10.0 mi SE 8.1 mph - N/A   Clear